Retour au catalogue

FENGYUN 1C DEB

ActifSSO
NORAD 36680·DEBRIS·🇨🇳 China

Lancé May 10, 1999 depuis Taiyuan Satellite Launch Center

Loading…

Prochains Passages (prochaines 24 heures)

TLE

FraisSource: Space-Track

Époque: Sep 14, 2026, 17:52 UTC

1 36680U 99025DZA 26257.74472205  .00000464  00000-0  20307-3 0  9990
2 36680  98.5689 245.5836 0188011 171.2281   3.7178 14.19200855682113

Suivez FENGYUN 1C DEB en temps réel avec AllMySat

Download on the App Store